User: anonymous
Location: Albany
(35.0000°S, 118.0000°E)
Time: 08:40:24
(UTC-04:00)
Language:

SJ-6B - Orbit

View from above orbital plane
View from above orbital plane
View from above satellite
View from above satellite

Ground track
Ground track

The orbit data is extracted from the following two-line orbital elements,

1 28415U 04035C   14231.08826127  .00001650  00000-0  12526-3 0  2676
2 28415 097.8013 236.1261 0056257 020.3110 340.0335 15.02416540543191
Epoch (UTC): 19 August 2014 02:07:05
Eccentricity: 0.0056257
inclination: 97.8013°
perigee height: 520 km
apogee height: 598 km
right ascension of ascending node: 236.1261°
argument of perigee: 20.3110°
revolutions per day: 15.02416540
mean anomaly at epoch: 340.0335°
orbit number at epoch: 54319

The dashed part of the orbit path shows where the satellite is in the earth's shadow,  

DLR